AEROCUBE 12B (43557 NORAD) Tracking and Keplerian Element Data

This shows tracking and keplerian element data for the satellite.

Feedback or suggestion? Click here.




ElementValue
Catalog43557
NameAEROCUBE 12B
Epoch Orbit23482
Epoch Day269.89202311
Epoch Year2022
RAAN54.3042
Inclination51.6374
Eccentricity0.0006581
Argument of Perigee38.5223
Mean Anonmoly321.623
Mean Motion15.40085367
Decay Rate0.00018715
L11 43557U 18046D 22269.89202311 .00018715 00000+0 46875-3 0 9994
L22 43557 51.6374 54.3042 0006581 38.5223 321.6230 15.40085367234828

Live tracking and technical data element details for AEROCUBE 12B (NORAD 43557). AEROCUBE 12B can be tracked NOW for your location showing map with azimuth and elevation plus other details from your city location.

Track the satellite on the map from your city or location and see movement details for azimuth, elevation, latitude, longitude, range, height, and movement on the map or in text.







IsCatalogInMostPopularTable: catalog: 43557, numindb: 626
Update: records affected: 1



GetName: 43557 AEROCUBE 12B

Hit Count: updated at: Wed, 28 Sep 2022 21:36:13 GMT